Location: Montamat
(43.4852°N, 0.8444°E)
Time: 21:11:56
(UTC+00:00)

Cosmos 2221 - Pass Details

Date: 14 May 2026
Orbit: 569 x 587 km, 82.5° (Epoch: 8 June)

Event Time Altitude Azimuth Distance (km) Brightness Sun altitude
Exits shadow 23:35:24 44° 329° (NNW) 807 3.4 -27.6°
Drops below altitude 10° 23:38:34 10° 360° (N) 1,901 6.0 -27.6°
Sets 23:40:48 0° 5° (N) 2,809 7.2 -27.6°
